Location: ?????
(31.8092°N, 35.2590°E)
Time: 20:10:28
(UTC+00:00)

USA 245 - Pass Details

Date: 20 June 2021
Orbit: 268 x 975 km, 97.9° (Epoch: 30 July)

Event Time Altitude Azimuth Distance (km) Brightness Sun altitude
Exits shadow 19:04:12 57° 182° (S) 862 3.9 -23.3°
Maximum altitude 19:05:13 81° 258° (WSW) 767 3.9 -23.4°
Drops below altitude 10° 19:10:49 10° 346° (NNW) 2,503 7.5 -24.2°
Sets 19:13:26 0° 348° (NNW) 3,528 8.5 -24.5°
